Location: Unspecified
(43.4354°N, 0.0000°E)
Time: 11:04:30
(UTC+00:00)

S-56A Canister/Altair - Pass Details

Date: 27 June 2019
Orbit: 632 x 2500 km, 38.9° (Epoch: 16 July)

Event Time Altitude Azimuth Distance (km) Brightness Sun altitude
Rises 19:03:36 0° 278° (W) 4,410 13.1 5.6°
Reaches altitude 10° 19:07:20 10° 270° (W) 3,113 11.9 5.0°
Maximum altitude 19:13:34 32° 211° (SSW) 1,527 9.2 4.0°
Drops below altitude 10° 19:18:11 10° 148° (SSE) 2,275 9.4 3.3°
Sets 19:20:30 0° 138° (SE) 3,068 10.0 2.9°
